Погода в Житомире

Хотите узнать прогноз погоды в Житомире? Тогда Вам сюда: Погода в Житомире

Поиск расширенной информации на нашем сайте:

Полезная информация:

Новости сайта



02.01.2020
Опубликован Долгосрочный прогноз погоды по городам России и ближнего зарубежья на январь 2020 года.
Карты: Прогноз на январь и февраль 2020 года, Сравнение прогнозируемой аномалии приземной температуры воздуха на январь 2020 года по разным моделям.




Погода в Житомире - сегодня

Время (UTC), дата Ветер
(°,м/с) 
Видим.   Явления Облачность Т
(°С)
Тd
(°С)
f(%) Тe
(°С)
Pmin
(гПа)
dP
(гПа)
Po
(мм)
O2
(г/м3)
Тmin Tmax R s Состояние
почвы
15 19.10.20 290 (З) 10 км    4/1 600 м средняя, верхняя 
[Sc diur, vesp|Ac trans|Cc]
+8.7 +1.1 59 +10  1021.9  0.9  746  291           
18 19.10.20 250 (З) 10 км    ясно 
+6 +2.1 76 +7  1023.6  1.4  747  294    +11.1  0.0     
21 19.10.20 320 (СЗ) 10 км    ясно 
+4.2 +2.5 89 +5  1024.8  748  297           
00 20.10.20 320 (СЗ) 4000 м  дымка  ясно 
+3.4 +2.1 91 +4  1025.4  0.5  749  298           
03 20.10.20 250 (З) 4000 м  дымка  ясно 
+3.8 +2.8 93 +5  1025.6  0.3  749  297           
06 20.10.20 270 (З) 4000 м  дымка  9/3 300 м верхняя 
[St|Ci fib]
+4.1 +3.1 93 +4  1026.5  0.9  749  297  +2.4         
09 20.10.20 310 (СЗ) 10 км    9/8 700 м верхняя 
[Cu med, cong|Ci fib]
+9.7 +3.8 67 +10  1026.7  0.7  750  291           
12 20.10.20 320 (СЗ) 10 км    8/8 700 м кучево-дожд., верхняя 
[Cb cap|Ci fib]
+10.7 +2.9 58 +11  1026.8  0.2  750  290           
15 20.10.20 тихо ()   10 км    10/0 верхняя 
[Cs]
+9.5 +3.3 65 +10  1026.8  -0.1  750  292           
18 20.10.20 тихо ()   4000 м  дымка  10/0 верхняя 
[Cs]
+5.6 +4.2 91 +6  1027.2  750  295    +11.9       
21 20.10.20 тихо ()   4000 м  дымка  8/0 верхняя 
[Cs]
+5.4 +4 91 +5  1027.4  0.2  750  296           
00 21.10.20 170 (Ю) 4000 м  дымка  10/0 средняя 
[Ac und]
+5.6 +3.7 88 +6  1026.3  -1.1  749  295           
03 21.10.20 тихо ()   10 км    6/0 средняя, верхняя 
[Ac trans|Ci fib]
+4.6 +2.4 86 +5  1025  -1.3  748  296           
06 21.10.20 160 (Ю) 10 км    10/0 средняя 
[Ac As]
+6.2 +1.5 72 +7  1022.6  -2.2  747  294  +4.5         
09 21.10.20 240 (ЮЗ) 10 км    10/0 средняя 
[Ac As]
+8.4 +3 69 +8  1021.7  -0.7  746  291           
12 21.10.20 240 (ЮЗ) 10 км    10/0 средняя, верхняя 
[Ac trans|Cs]
+10.7 +3.7 62 +12  1020.3  -1.1  745  288           
15 21.10.20 350 (С) 10 км    10/0 средняя 
[Ac As]
+10.2 +4.7 69 +11  1019.8  -0.6  745  289           
18 21.10.20 290 (З) 10 км    10/0 средняя 
[Ac und]
+9.5 +5.1 74 +11  1019.4  -0.4  745  289    +10.7       
21 21.10.20 230 (ЮЗ) 10 км    10/0 средняя 
[Ac As]
+8.9 +5.4 79 +10  1019.1  -0.4  744  290           
00 22.10.20 350 (С) 10 км    10/0 средняя 
[Ac As]
+8.7 +5.4 80 +10  1019.3  0.2  745  290           
03 22.10.20 220 (ЮЗ) 10 км    ясно 
+7.7 +5 83 +9  1019  -0.4  744  291           
06 22.10.20 230 (ЮЗ) 10 км    6/0 средняя, верхняя 
[Ac trans|Ci fib]
+8.3 +4.7 78 +8  1019.2  0.3  744  290  +7.3         
09 22.10.20 220 (ЮЗ) 10 км    6/0 средняя, верхняя 
[Ac cast|Ci sp]
+16 +6.9 55 +17  1018.4  -0.1  744  282           
12 22.10.20 270 (З) 10 км    9/0 средняя, верхняя 
[Ac trans|Ci fib]
+17.6 +5.8 46 +18  1017.9  -0.3  744  281           
15 22.10.20 280 (З) 10 км    9/0 средняя, верхняя 
[Ac trans|Ci fib]
+16 +8.6 61 +17  1017.7  -0.4  744  282           
Время (UTC), дата Ветер
(°,м/с) 
Видим.   Явления Облачность Т
(°С)
Тd
(°С)
f(%) Тe
(°С)
Pmin
(гПа)
dP
(гПа)
Po
(мм)
O2
(г/м3)
Тmin Tmax R s Состояние
почвы

Для получения пояснительной информации подведите курсор к названию столбца.

ПОГОДА в Житомире - архив

Всё, что Вы хотите узнать о погоде в Житомире - удобно и подробно!

Выберите нужную дату (начиная с 1 января 2019* года) и нажмите кнопку "Найти".
Будут отображены архивные сводки погоды по пункту Житомир, начиная с указанной даты.


Отображать данные в формате CSV (для использования в таблицах Excel)


Внимание! Наш архив погоды предназначен исключительно для личного некоммерческого использования в познавательных целях. Если Вам необходимы официальные справки о состоянии погоды (для производственных, юридических, коммерческих и т.п. целей), обращайтесь в органы Росгидромета.

*Примечание: данная дата относится к архиву по метеостанциям СССР (Россия, СНГ, Балтия).
Архив по метеостанциям Зарубежной Европы и Азии (кроме Китая) хранится 10 дней, по другим регионам земного шара (Китай, Африка, Америка, Австралия, Океания) - 1 день.

Житомир - район местоположения метеостанции


Название, широта, долгота, высота метеостанции:
Житомир 50.2°ш. 28.7°д. 224 м над ур. моря [Украина]

Дополнительная информация

В oтличие oт бoльшинства пoгoдных сайтoв мы публикуем пoдрoбную метеoинфoрмацию в детальнoм прoфессиoнальнoм фoрмате.

Характеристики температуры и влажнoсти вoздуха измеряются на высoте 2 м в тени вдали oт зданий и деревьев.
Скoрoсть ветра измеряется на высoте 10 м (на урoвне рoста челoвека скoрoсть ветра ниже в 1.5-2 раза). Если метеoстанция нахoдится в гoрoде или в лесу, тo скoрoсть ветра занижена на 2-4 м/с пo сравнению с oткрытым местoм. Скoрoсть ветра над акватoриями крупных рек и oзёр, а также на вершинах хoлмoв на 2-5 м/с выше, чем в oбычных услoвиях.
Атмoсфернoе давление в разных тoчках местнoсти мoжет значительнo oтличаться oт давления на метеoстанции, в зависимoсти oт услoвий рельефа (при пoдъёме на 10 м давление пoнижается примернo на 1 мм рт.ст.).